Regional Weather Roundup
Issued by NWS

Home | Current Version | Previous Version | Text Only | Print | Product List | Glossary On
Versions: 1 2 3 4 5 6 7 8 9 10 11 12 13 14 15 16 17 18 19 20 21 22 23 24 25 26 27 28 29 30 31 32 33 34 35 36 37 38 39 40 41 42 43 44 45 46 47 48 49 50
000
ASUS45 KBOU 310710
RWRCO

WEATHER ROUNDUP FOR COLORADO
NATIONAL WEATHER SERVICE DENVER/BOULDER CO
100 AM MDT FRI JUL 31 2015

NOTE: "FAIR" INDICATES FEW OR NO CLOUDS BELOW 12000 FEET WITH NO
SIGNIFICANT WEATHER AND/OR OBSTRUCTIONS TO VISIBILITY.

COZ001>005-013-030-031-310800-
...NORTHWEST COLORADO...

CITY           SKY/WX    TMP DP  RH WIND       PRES   REMARKS
CRAIG          CLEAR     50  35  56 CALM      30.35S
HAYDEN         CLEAR     55  28  35 E8        30.38S
MEEKER         CLEAR     53  33  46 NE5       30.37S
MOUNT WERNER   NOT AVBL
STEAMBOAT SPGS CLEAR     52  38  57 CALM      30.41R
WALDEN         CLEAR     50  36  57 SE6       30.52R
$$

COZ006>008-011-310800-
...WEST CENTRAL VALLEYS...

CITY           SKY/WX    TMP DP  RH WIND       PRES   REMARKS
GRAND JUNCTION PTCLDY    67  28  23 E5        30.21R
MONTROSE       PTCLDY    69  35  28 S13       30.32R
EAGLE          PTCLDY    59  28  31 CALM      30.42R
RIFLE          CLEAR     64  32  30 CALM      30.30R
DELTA          PTCLDY    67  37  32 E5        30.27R
NUCLA          PTCLDY    70  36  28 E8        30.38R
$$

COZ017>023-064>068-310800-
...SOUTHWEST COLORADO...

CITY           SKY/WX    TMP DP  RH WIND       PRES   REMARKS
DURANGO        LGT RAIN  63  56  78 SW6       30.47R
CORTEZ         CLEAR     68  55  63 S20       30.39R
PAGOSA SPRINGS RAIN      63  54  72 CALM      30.54R
TELLURIDE      MOCLDY    58  34  39 CALM      30.60S
WOLF CREEK PAS NOT AVBL
$$

COZ009-010-012-014-032>034-037-058>063-310800-
...CENTRAL COLORADO...

CITY           SKY/WX    TMP DP  RH WIND       PRES   REMARKS
ASPEN          PTCLDY    55  36  48 S7        30.47S
BUENA VISTA    MOCLDY    57  52  84 W3        30.55S
COPPER MTN     CLEAR     54  39  58 S13G20    30.82R
BERTHOUD PASS  NOT AVBL
COTTONWOOD PAS NOT AVBL
GUNNISON       PTCLDY    63  45  51 N3        30.52R
KREMMLING      NOT AVBL
LEADVILLE      PTCLDY    50  44  80 CALM      30.67R
SALIDA         CLOUDY    66  51  58 CALM      30.58F
SUNLIGHT       NOT AVBL
WILKERSON PASS MOCLDY    50  41  71 CALM      30.81S
$$

COZ069>075-310800-
...SAN LUIS VALLEY/SANGRE DE CRISTO MOUNTAINS...

CITY           SKY/WX    TMP DP  RH WIND       PRES   REMARKS
ALAMOSA        CLOUDY    59  51  75 SE5       30.49S
LA VETA PASS   NOT AVBL
SAGUACHE       NOT AVBL
$$

COZ035-036-038>040-310800-
...NORTHERN COLORADO FRONT RANGE...

CITY           SKY/WX    TMP DP  RH WIND       PRES   REMARKS
DENVER INTL AP MOCLDY    69  52  54 S15       30.33S
DMNS CITY PARK   N/A     71  52  51 S8        30.33S
AURORA         MOCLDY    70  53  55 S17       30.35S
FRONT RANGE AP NOT AVBL
ERIE MUNI ARPT PTCLDY    64  56  75 NW3       30.32S
BOULDER MUN AP PTCLDY    66  57  72 NW5       30.34R
CENTENNIAL     PTCLDY    69  52  54 S16       30.36F
BROOMFIELD     PTCLDY    68  55  64 N3        30.36R
FORT COLLINS   PTCLDY    64  55  72 N9        30.33F
LONGMONT       PTCLDY    69  58  67 N6        30.34R
$$

COZ041-046-047-076>085-087-088-310800-
...PIKES PEAK/PALMER DIVIDE AND SOUTHERN FOOTHILLS...

CITY           SKY/WX    TMP DP  RH WIND       PRES   REMARKS
COLO. SPRINGS  MOCLDY    63  57  81 NE6       30.45R
A. F. ACADEMY  MOCLDY    62  52  70 SE6       30.46S
ELLICOTT       PTCLDY   N/A N/A N/A E7        30.42S
FALCON         PTCLDY    58  57  97 CALM      30.49S
FORT CARSON    PTCLDY    63  53  72 NW3       30.41S
LIMON          CLEAR     56  54  93 N3        30.37F
MONUMENT HILL  NOT AVBL
TRINIDAD       MOCLDY    65  57  75 W8        30.36F
$$

COZ042>045-048>051-090-091-310800-
...NORTHEAST COLORADO...

CITY           SKY/WX    TMP DP  RH WIND       PRES   REMARKS
GREELEY ARPT   PTCLDY    63  57  82 NE6       30.32S
AKRON          CLEAR     67  57  70 SW10      30.30S
BURLINGTON     PTCLDY    65  60  84 SW5       30.28R
WRAY           CLEAR     60  58  92 N6        30.26R
STERLING       CLEAR     63  55  77 N5        30.27R
HOLYOKE        NOT AVBL
FORT MORGAN    CLEAR     65  57  77 SW3       30.30S
$$

COZ086-089-092>099-310800-
...SOUTHEAST COLORADO...

CITY           SKY/WX    TMP DP  RH WIND       PRES   REMARKS
PUEBLO         CLEAR     71  55  56 NE9       30.32S
LA JUNTA       PTCLDY    68  63  84 NE8       30.28F
LAMAR          PTCLDY    66  64  93 E5        30.25F
SPRINGFIELD      N/A     69  67  93 SE9       30.31F
$$


USA.gov is the U.S. government's official web portal to all federal, state and local government web resources and services.